Regional Weather Roundup
Issued by NWS

Home | Current Version | Previous Version | Text Only | Print | Product List | Glossary Off
Versions: 1 2 3 4 5 6 7 8 9 10 11 12 13 14 15 16 17 18 19 20 21 22 23 24 25 26 27 28 29 30 31 32 33 34 35 36 37 38 39 40 41 42 43 44 45 46 47 48 49 50

000
ASUS45 KABQ 282001
RWRNM
WEATHER ROUNDUP FOR NEW MEXICO
NATIONAL WEATHER SERVICE ALBUQUERQUE NM
100 PM MST FRI NOV 28 2014

NOTE: "FAIR" MEANS FEW OR NO CLOUDS BELOW 12,000 FEET AGL WITH NO
       SIGNIFICANT WEATHER OR OBSTRUCTIONS TO VISION.

      THIS PRODUCT IS RELEASED AS TWO VERSIONS.  ONE VERSION NEAR
      THE TOP OF THE HOUR CONTAINING PRELIMINARY DATA FROM ALBUQUERQUE
      AND OTHER STATIONS.  A FINAL VERSION WITH ADDITIONAL DATA IS
      ISSUED ABOUT 10 MINUTES AFTER THE HOUR.

NMZ501-503-504-510>518-282100-
NORTHWEST PLATEAU/NORTHCENTRAL MOUNTAINS

CITY           SKY/WX    TMP DP  RH WIND       PRES   REMARKS
FARMINGTON     SUNNY     55  20  25 SE5       30.15F
SANTA FE       SUNNY     55  17  22 SW8       30.18F
TAOS           MOSUNNY   52  21  30 SW5       30.20F
ANGEL FIRE     FAIR      49   5  16 W20G26    30.19F

$$
NMZ402-403-502-505>509-282100-
WESTCENTRAL MOUNTAINS/SOUTHWEST MOUNTAINS

CITY           SKY/WX    TMP DP  RH WIND       PRES   REMARKS
GALLUP         SUNNY     65   6  10 SW14      30.19F
SILVER CITY    SUNNY     64  16  15 SE5       30.21F

$$
NMZ407-409-411-412-282100-
SOUTHERN DESERTS

CITY           SKY/WX    TMP DP  RH WIND       PRES   REMARKS
LORDSBURG      FAIR      66  21  18 SE7       30.15F
DEMING         SUNNY     65  22  19 S5        30.16F
HOLLOMAN AFB   SUNNY     64  23  20 S3        30.15F
T OR C         SUNNY     63  22  20 S9        30.15F

$$
NMZ519>523-282100-
CENTRAL VALLEYS/CENTRAL HIGHLANDS

CITY           SKY/WX    TMP DP  RH WIND       PRES   REMARKS
ALBUQUERQUE    MOSUNNY   57  21  24 S8        30.18F
DOUBLE EAGLE   MOSUNNY   55  19  24 VRB7      30.19F
MORIARTY ARPT  FAIR      64  18  17 SW6       30.17F
CLINES CORNERS SUNNY     62  17  17 W20       30.16F
BELEN          FAIR      56  20  24 SW5       30.17F
SOCORRO        FAIR      60  22  23 S7        30.17F

$$
NMZ524>526-539-540-282100-
SOUTHCENTRAL MOUNTAINS

CITY           SKY/WX    TMP DP  RH WIND       PRES   REMARKS
RUIDOSO        SUNNY     64  21  19 NW9       30.22F

$$
NMZ527>531-282100-
NORTHEAST HIGHLANDS/NORTHEAST PLAINS

CITY           SKY/WX    TMP DP  RH WIND       PRES   REMARKS
LAS VEGAS      PTSUNNY   71  -4   5 W28G36    30.09F
RATON          CLOUDY    56  13  18 CALM      30.02F
CLAYTON        PTSUNNY   76   0   5 W22G31    29.93F

$$
NMZ532>537-282100-
EASTCENTRAL PLAINS

CITY           SKY/WX    TMP DP  RH WIND       PRES   REMARKS
TUCUMCARI      SUNNY     79  12   8 W25G36    29.95F
CANNON AFB     MOSUNNY   74  19  12 W15G23    30.03F
CLOVIS AIRPORT MOSUNNY   73  21  14 W18       30.02F

$$
NMZ028-029-538-282100-
SOUTHEAST PLAINS

CITY           SKY/WX    TMP DP  RH WIND       PRES   REMARKS
ROSWELL        SUNNY     66  25  21 SE6       30.06F
CARLSBAD       SUNNY     67  30  25 SE3       30.05F
HOBBS          SUNNY     68  27  21 S10       30.08F


$$


USA.gov is the U.S. government's official web portal to all federal, state and local government web resources and services.